Tracking 31027 objects as of 19-Jul-2025
HD Live streaming from Space Station
objects crossing your sky now

CZ-4 DEB

Track CZ-4 DEB now!
10-day predictions


NORAD ID: 23261
Int'l Code: 1990-081CS
Perigee: 668.0 km
Apogee: 690.0 km
Inclination: 98.3 °
Period: 98.2 minutes
Semi major axis: 7049 km
RCS: 0.0028 m2 (small)
Launch date: September 3, 1990
Source: People's Republic of China (PRC)
Launch site: Taiyaun Space Center, China (TSC)

Note: This is SATELLITE DEBRIS
Your satellite tracking list
CREW DRAGON DEMO-2 DEB
Track 1 satellite(s)




NASA's NSSDC Master Catalog

Two Line Element Set (TLE):
1 23261U 90081CS  25199.01090309  .00005584  00000-0  10117-2 0  9994
2 23261  98.2642 220.0410 0015570 278.3192 145.9544 14.66626495793534
Source of the keplerian elements: AFSPC